Regional Weather Roundup
Issued by NWS

Home | Current Version | Previous Version | Text Only | Print | Product List | Glossary On
Versions: 1 2 3 4 5 6 7 8 9 10 11 12 13 14 15 16 17 18 19 20 21 22 23 24 25 26 27 28 29 30 31 32 33 34 35 36 37 38 39 40 41 42 43 44 45 46 47 48 49 50
000
ASUS43 KMKX 240021
RWRWI

WISCONSIN REGIONAL WEATHER ROUNDUP
NATIONAL WEATHER SERVICE MILWAUKEE/SULLIVAN WI
700 PM CDT MON MAY 23 2016

NOTE: "FAIR" INDICATES FEW OR NO CLOUDS BELOW 12,000 FEET WITH NO
SIGNIFICANT WEATHER AND/OR OBSTRUCTIONS TO VISIBILITY.

WIZ001-002-006>008-014>016-023>028-240100-
NORTHWEST WISCONSIN

CITY           SKY/WX    TMP DP  RH WIND       PRES   REMARKS
SUPERIOR ARPT  CLOUDY    72  61  69 S8        29.72F
6HR MIN TEMP:  72; 6HR MAX TEMP:  81;

ASHLAND        HVY RAIN  65  65 100 VRB7      29.77S FOG
6HR MIN TEMP:  66; 6HR MAX TEMP:  83; 6HR PCP:  0.41;

HAYWARD        CLOUDY    67  64  90 CALM      29.78S
6HR MIN TEMP:  66; 6HR MAX TEMP:  82; 6HR PCP:  0.19;

SIREN          CLOUDY    69  66  89 CALM      29.75F
6HR MIN TEMP:  66; 6HR MAX TEMP:  82; 6HR PCP:  0.12;

CUMBERLAND     CLOUDY    70  61  73 SW13      29.76F
RICE LAKE      CLOUDY    72  62  70 SE8G16    29.78S THUNDER
6HR MIN TEMP:  72; 6HR MAX TEMP:  84; 6HR PCP:  0.01;

CHETEK         LGT RAIN  67  64  91 W5        29.77F
6HR MIN TEMP:  66; 6HR MAX TEMP:  82; 6HR PCP:  0.09;

LADYSMITH      CLOUDY    78  51  38 S9        29.78F
6HR MIN TEMP:  76; 6HR MAX TEMP:  83;

EAU CLAIRE     RAIN      73  61  65 W20G29    29.77R
6HR MIN TEMP:  79; 6HR MAX TEMP:  85;

MENOMONIE      CLOUDY    74  66  77 SW12      29.76F
6HR MIN TEMP:  71; 6HR MAX TEMP:  86; 6HR PCP:  0.11;

NEW RICHMOND   CLOUDY    72  58  61 SW12      29.76F
6HR MIN TEMP:  71; 6HR MAX TEMP:  82; 6HR PCP:  0.01;

OSCEOLA        PTSUNNY   74  59  59 S12       29.78S
6HR MIN TEMP:  74; 6HR MAX TEMP:  83;

$$

WIZ003>005-009-010-017-018-240100-
NORTH CENTRAL WISCONSIN

CITY           SKY/WX    TMP DP  RH WIND       PRES   REMARKS
MANITOWISH WTR CLOUDY    69  58  67 W3        29.80R
6HR MIN TEMP:  69; 6HR MAX TEMP:  82;

ARBOR VITAE    PTSUNNY   79  46  31 SW10      29.81R
6HR MIN TEMP:  79; 6HR MAX TEMP:  82;

WOODRUFF       PTSUNNY   79  46  31 SW10      29.81R
6HR MIN TEMP:  79; 6HR MAX TEMP:  82;

RHINELANDER    PTSUNNY   79  43  27 SW13G26   29.83S
6HR MIN TEMP:  79; 6HR MAX TEMP:  84;

EAGLE RIVER      N/A     79  37  22 SW12G18   29.81S
LAND O LAKES   CLOUDY    80  40  24 SW10G22   29.82R
6HR MIN TEMP:  80; 6HR MAX TEMP:  85;

PHILLIPS       CLOUDY    77  53  42 SW9G17    29.79R
6HR MIN TEMP:  76; 6HR MAX TEMP:  82;

TOMAHAWK       MOSUNNY   76  45  33 S6        29.82R
6HR MIN TEMP:  76; 6HR MAX TEMP:  82;

MEDFORD        PTSUNNY   78  49  34 S18G24    29.82R
6HR MIN TEMP:  78; 6HR MAX TEMP:  82;

MERRILL        MOSUNNY   79  46  31 SW12G17   29.83R
$$

WIZ029-030-035-036-043>047-240100-
CENTRAL WISCONSIN

CITY           SKY/WX    TMP DP  RH WIND       PRES   REMARKS
WAUSAU         CLOUDY    82  43  25 S23       29.81S HX  80
6HR MIN TEMP:  82; 6HR MAX TEMP:  86;

MOSINEE        SUNNY     79  41  25 S17G26    29.84
MARSHFIELD     CLOUDY    78  45  30 S12       29.82S
6HR MIN TEMP:  78; 6HR MAX TEMP:  84;

STEVENS POINT  CLOUDY    79  43  27 S16G22    29.84S
6HR MIN TEMP:  79; 6HR MAX TEMP:  83;

WAUPACA        SUNNY     81  43  25 S10       29.84S HX  80
6HR MIN TEMP:  81; 6HR MAX TEMP:  87;

WAUTOMA        CLOUDY    81  46  29 S7        29.85S HX  80
6HR MIN TEMP:  81; 6HR MAX TEMP:  86;

WISC RAPIDS    CLOUDY    80  43  26 SW15G26   29.85R
6HR MIN TEMP:  80; 6HR MAX TEMP:  86;

CAMP DOUGLAS   MOSUNNY   82  47  29 S14G20    29.83S HX  80
6HR MIN TEMP:  82; 6HR MAX TEMP:  84;

$$

WIZ011>013-019>022-031-037>040-048>050-240100-
NORTHEAST WISCONSIN

CITY           SKY/WX    TMP DP  RH WIND       PRES   REMARKS
ANTIGO         CLOUDY    78  44  30 S17       29.84S
6HR MIN TEMP:  78; 6HR MAX TEMP:  83;

SHAWANO        CLOUDY    83  42  23 S8        29.84R HX  81
6HR MIN TEMP:  83; 6HR MAX TEMP:  86;

OCONTO         SUNNY     72  49  44 S10G17    29.84S
6HR MIN TEMP:  72; 6HR MAX TEMP:  84;

STURGEON BAY   NOT AVBL
GREEN BAY      SUNNY     77  47  34 S16       29.85F
6HR MIN TEMP:  77; 6HR MAX TEMP:  85;

MANITOWOC      SUNNY     67  38  34 S17       29.90F
6HR MIN TEMP:  65; 6HR MAX TEMP:  70;

APPLETON       MOSUNNY   81  39  22 S14G22    29.85S
CLINTONVILLE   SUNNY     81  41  24 SW10G17   29.84R
OSHKOSH        SUNNY     80  44  27 S13       29.86S
6HR MIN TEMP:  80; 6HR MAX TEMP:  83;

$$

WIZ032>034-041-042-053>061-240100-
SOUTHWEST WISCONSIN

CITY           SKY/WX    TMP DP  RH WIND       PRES   REMARKS
LA CROSSE      MOSUNNY   77  56  48 W23G30    29.81R
6HR MIN TEMP:  82; 6HR MAX TEMP:  88;

SPARTA         SUNNY     82  45  27 S12G22    29.82F HX  80
6HR MIN TEMP:  82; 6HR MAX TEMP:  85;

VIROQUA        MOSUNNY   80  42  25 S10       29.84F
6HR MIN TEMP:  80; 6HR MAX TEMP:  84;

BOSCOBEL       NOT AVBL
PRAIRIE DU CHI SUNNY     82  40  22 S8G17     29.82F HX  80
6HR MIN TEMP:  82; 6HR MAX TEMP:  85;

PLATTEVILLE    SUNNY     82  43  25 SW18      29.87S HX  80
6HR MIN TEMP:  81; 6HR MAX TEMP:  84;

$$

WIZ056-057-062-063-064-067-068-240100-
SOUTH CENTRAL WISCONSIN

CITY           SKY/WX    TMP DP  RH WIND       PRES   REMARKS
REEDSBURG      CLOUDY    81  47  31 S15       29.85F HX  80
6HR MIN TEMP:  81; 6HR MAX TEMP:  84;

BARABOO/DELLS  CLOUDY    82  41  23 S15       29.86F HX  80
6HR MIN TEMP:  81; 6HR MAX TEMP:  85;

LONE ROCK      SUNNY     82  44  26 S12       29.86S HX  80
6HR MIN TEMP:  82; 6HR MAX TEMP:  86;

MINERAL POINT  SUNNY     81  41  24 S9        29.88S
MADISON        CLOUDY    80  47  31 S12       29.86F
6HR MIN TEMP:  80; 6HR MAX TEMP:  83;

MIDDLETON      CLOUDY    83  42  23 SW9       29.88S HX  81
6HR MIN TEMP:  82; 6HR MAX TEMP:  86;

WATERTOWN      SUNNY     78  47  33 S8        29.88S
6HR MIN TEMP:  78; 6HR MAX TEMP:  83;

MONROE         CLOUDY    81  43  26 SW13G22   29.88F
JANESVILLE     SUNNY     81  43  26 S8        29.89S
$$

WIZ051-052-058>065-066-070>072-240100-
SOUTHEAST WISCONSIN

CITY           SKY/WX    TMP DP  RH WIND       PRES   REMARKS
MILWAUKEE      PTSUNNY   73  38  27 S10       29.92S
6HR MIN TEMP:  73; 6HR MAX TEMP:  76;

WAUKESHA       SUNNY     73  45  35 SE12      29.92F
MILWAUKEE/TIMM SUNNY     77  34  20 SE10      29.91F
RACINE         SUNNY     70  38  31 S7        29.94F
6HR MIN TEMP:  70; 6HR MAX TEMP:  74;

BURLINGTON     SUNNY     75  42  30 SE7       29.91S
6HR MIN TEMP:  75; 6HR MAX TEMP:  82;

KENOSHA        SUNNY     72  39  30 SE8       29.92F
6HR MIN TEMP:  72; 6HR MAX TEMP:  77;

FOND DU LAC    SUNNY     80  45  28 S9        29.87S
6HR MIN TEMP:  80; 6HR MAX TEMP:  85;

SHEBOYGAN      SUNNY     70  40  33 S14G21    29.91F
6HR MIN TEMP:  70; 6HR MAX TEMP:  74;

WEST BEND      SUNNY     73  41  31 SE5       29.90S
JUNEAU         SUNNY     78  46  31 S9        29.90S
6HR MIN TEMP:  78; 6HR MAX TEMP:  82;

$$

LSZ147-162-240100-
LAKE SUPERIOR

STATION/POSITION TIME  TEMP    WIND        PRES    WAVE
                       AIR SEA DIR/SP/G            HT/PER
                 (UTC) (F)     (DEG/KT/KT) (MB)    (FT/S)
W MID LAKE BUOY  2250   55 38  300/  4/  4 1006.3F   1/ 4
DEVILS ISLAND    0000   63     200/ 13/ 19 1008.2R
SAXON HARBOR     0000   63     330/  2/  9 1008.1R
$$

LMZ867-665-643>646-240100-
LAKE MICHIGAN

STATION/POSITION TIME  TEMP    WIND        PRES    WAVE
                       AIR SEA DIR/SP/G            HT/PER
                 (UTC) (F)     (DEG/KT/KT) (MB)    (FT/S)
CHAMBERS ISLAND  2300   70     140/  8/ 16 1010.8F
N MID LAKE BUOY  2250   52 45  200/ 16/ 17 1012.3F   2/ 4
NORTHPORT PIER   0000   64     160/ 11/ 22 1011.5F
KEWAUNEE LAKESHO C1F1C2F2C3F3C4F4C5F5C6F6C7F7C8M1C9M2Ca!


USA.gov is the U.S. government's official web portal to all federal, state and local government web resources and services.